| time (UTC) | temp C | wind direction | speed KPH | gust KPH | rain 1hr cm | rain 24hr cm | rain mn cm | humidity % | barometer mb |
| 20260504081541 | 2 | 284 | 20.9 | 27.4 | 0.10 | 1.04 | 0.30 | 93 | 977.4 |
| 20260504044551 | 5 | 88 | 0.0 | 12.9 | 0.00 | 0.74 | 0.00 | 85 | 975.5 |
| 20260504043042 | 5 | 71 | 4.8 | 12.9 | 0.00 | 0.74 | 0.00 | 84 | 975.8 |
| 20260504041538 | 5 | 121 | 3.2 | 19.3 | 0.00 | 0.74 | 0.00 | 84 | 976.2 |
| 20260504040053 | 5 | 122 | 16.1 | 29.0 | 0.00 | 0.74 | 0.00 | 82 | 976.4 |
| 20260504034554 | 5 | 197 | 1.6 | 22.5 | 0.00 | 0.74 | 0.00 | 82 | 977.2 |
| 20260504033114 | 6 | 137 | 11.3 | 20.9 | 0.00 | 0.74 | 0.00 | 82 | 977.4 |
| 20260504031538 | 6 | 211 | 8.0 | 20.9 | 0.00 | 0.74 | 0.00 | 82 | 977.6 |
| 20260504030047 | 6 | 193 | 14.5 | 29.0 | 0.00 | 0.74 | 0.00 | 82 | 977.5 |
| 20260504024543 | 6 | 327 | 11.3 | 24.1 | 0.00 | 0.74 | 0.74 | 81 | 977.8 |
| 20260504023057 | 6 | 311 | 8.0 | 37.0 | 0.00 | 0.74 | 0.74 | 81 | 977.9 |
| 20260504021538 | 6 | 90 | 6.4 | 41.8 | 0.00 | 0.74 | 0.74 | 80 | 979.3 |
| 20260504020051 | 6 | 153 | 27.4 | 69.2 | 0.00 | 0.74 | 0.74 | 80 | 979.2 |
| 20260504014548 | 6 | 62 | 43.5 | 80.5 | 0.00 | 0.74 | 0.74 | 80 | 978.6 |
| 20260504000041 | 5 | 111 | 57.9 | 93.3 | 0.10 | 0.74 | 0.74 | 84 | 982.6 |
| 20260503234543 | 5 | 85 | 46.7 | 95.0 | 0.08 | 0.71 | 0.71 | 84 | 983.6 |
| 20260503233038 | 6 | 77 | 32.2 | 62.8 | 0.05 | 0.66 | 0.66 | 83 | 986.2 |
| 20260503231538 | 5 | 276 | 12.9 | 40.2 | 0.10 | 0.64 | 0.64 | 84 | 988.2 |
| 20260503230048 | 5 | 306 | 9.7 | 24.1 | 0.23 | 0.64 | 0.64 | 86 | 989.7 |
| 20260503224541 | 4 | 115 | 8.0 | 24.1 | 0.25 | 0.64 | 0.64 | 89 | 991.5 |
| 20260503223046 | 3 | 10 | 6.4 | 16.1 | 0.23 | 0.61 | 0.61 | 88 | 992.4 |
| 20260503221543 | 4 | 27 | 4.8 | 16.1 | 0.18 | 0.51 | 0.51 | 87 | 993.4 |
| 20260503220039 | 4 | 16 | 8.0 | 19.3 | 0.13 | 0.41 | 0.41 | 86 | 994.3 |
| 20260503214538 | 5 | 321 | 3.2 | 12.9 | 0.10 | 0.38 | 0.38 | 86 | 994.5 |
| 20260503213056 | 5 | 262 | 4.8 | 9.7 | 0.13 | 0.38 | 0.38 | 86 | 994.9 |
| 20260503211544 | 5 | 80 | 16.1 | 32.2 | 0.13 | 0.33 | 0.33 | 86 | 994.8 |
| 20260503210054 | 5 | 54 | 3.2 | 14.5 | 0.13 | 0.28 | 0.28 | 87 | 995.6 |
| 20260503204549 | 5 | 25 | 6.4 | 22.5 | 0.20 | 0.28 | 0.28 | 87 | 995.8 |
| 20260503203038 | 5 | 30 | 6.4 | 14.5 | 0.18 | 0.25 | 0.25 | 86 | 997.1 |
| 20260503201539 | 5 | 54 | 6.4 | 12.9 | 0.18 | 0.20 | 0.20 | 84 | 998.0 |
| 20260503200039 | 5 | 360 | 4.8 | 14.5 | 0.15 | 0.15 | 0.15 | 82 | 998.8 |
| 20260503194543 | 6 | 68 | 8.0 | 24.1 | 0.08 | 0.08 | 0.08 | 79 | 999.0 |
| 20260503193052 | 6 | 95 | 9.7 | 24.1 | 0.08 | 0.08 | 0.08 | 76 | 1000.4 |
| 20260503191547 | 7 | 71 | 11.3 | 30.6 | 0.03 | 0.03 | 0.03 | 70 | 1001.4 |
| 20260503190039 | 8 | 103 | 6.4 | 22.5 | 0.00 | 0.00 | 0.00 | 57 | 1002.5 |
| 20260503184550 | 8 | 115 | 24.1 | 35.4 | 0.00 | 0.00 | 0.00 | 53 | 1002.8 |
| 20260503183100 | 9 | 86 | 19.3 | 30.6 | 0.00 | 0.00 | 0.00 | 47 | 1003.2 |
| 20260503181543 | 10 | 140 | 16.1 | 32.2 | 0.00 | 0.00 | 0.00 | 40 | 1004.3 |
| 20260503180047 | 11 | 143 | 9.7 | 20.9 | 0.00 | 0.00 | 0.00 | 35 | 1004.8 |
| 20260503174539 | 11 | 110 | 17.7 | 32.2 | 0.00 | 0.00 | 0.00 | 33 | 1004.4 |
| 20260503173105 | 11 | 137 | 12.9 | 24.1 | 0.00 | 0.00 | 0.00 | 34 | 1005.2 |
| 20260503171541 | 11 | 128 | 16.1 | 30.6 | 0.00 | 0.00 | 0.00 | 33 | 1005.7 |